Location: Gibsondale
(40.9931°N, 80.2478°W)
Time: 14:51:10
(UTC+00:00)

Daily predictions for brighter satellites

Satellite Brightness Start Highest point End
(mag) Time Altitude Azimuth Time Altitude Azimuth Time Altitude Azimuth
Meteor 2-14 Rocket 4.5 22:35:21 10° N 22:41:31 77° E 22:47:37 10° SSE
Cosmos 2297 Rocket 2.6 22:39:07 10° N 22:44:30 42° ENE 22:49:50 10° SE
USA 306 4.3 22:45:40 10° NNW 22:49:08 23° NNE 22:52:34 10° ENE
SKYMED 2 4.5 22:46:04 10° NE 22:49:52 29° E 22:53:38 10° SSE
Cosmos 292 Rocket 4.2 22:46:50 10° SSW 22:51:36 69° WNW 22:56:26 10° NNE
H-2A R/B 4.1 22:48:31 10° S 22:52:44 43° W 22:57:03 10° NNW
Radarsat Rocket 4.5 22:49:43 10° S 22:55:45 66° WSW 23:01:33 10° NNW
Timation 2 Rocket 4.2 22:49:19 10° NNW 22:56:01 82° ENE 23:02:52 10° SSE
Meteor 2-10 Rocket 4.3 22:52:47 10° SSE 22:57:18 29° E 23:01:42 10° NNE
Okean-O 3.9 22:54:05 10° ESE 22:57:23 21° ENE 23:00:42 10° NNE
SMAP 3.4 22:56:47 10° S 23:01:25 72° WSW 23:06:05 10° NNW
Cosmos 1553 Rocket 4.2 22:55:56 10° SSE 23:01:59 48° E 23:07:58 10° NNE
Cosmos 1408 4.0 23:00:15 10° NNE 23:02:54 18° ENE 23:05:32 10° ESE
Cosmos 1689 Rocket 3.0 23:00:32 10° NE 23:03:03 27° E 23:05:34 10° SSE
FengYun 1-2 T 4.2 22:57:55 10° SSE 23:03:33 73° ENE 23:09:10 10° N
H-2A R/B 3.5 23:01:40 10° ESE 23:05:11 18° ENE 23:08:43 10° NNE
Cosmos 1953 Rocket 3.7 23:05:13 10° N 23:09:40 80° W 23:14:06 10° S
Cosmos 44 Rocket 4.1 23:08:23 10° S 23:12:29 30° ESE 23:16:15 12° NE
Cosmos 2058 Rocket 3.1 23:09:28 10° S 23:13:57 86° E 23:18:29 10° N
Lacrosse 5 4.0 23:12:09 10° NNW 23:14:25 13° N 23:16:40 10° NNE
Cosmos 2219 3.2 23:12:45 10° NNW 23:18:34 83° ENE 23:24:18 10° SSE
Cosmos 1892 2.9 23:17:57 10° N 23:21:45 49° E 23:25:30 10° SSE
Cosmos 1939 Rocket 2.8 23:19:13 10° SSE 23:23:07 61° ENE 23:26:59 10° N
ARGOS 4.5 23:21:56 17° E 23:23:39 19° ENE 23:27:22 10° NNE
SL-08 R/B 4.4 23:18:21 10° N 23:24:29 66° E 23:30:32 10° SSE
Cosmos 1076 Rocket 4.3 23:21:09 10° NNE 23:24:51 28° ENE 23:28:32 10° SE
Cosmos 968 Rocket 3.5 23:20:14 10° NNW 23:25:24 61° ENE 23:30:29 10° SSE
Cosmos 1656 3.9 23:19:59 10° SSW 23:25:32 75° WNW 23:31:12 10° NNE
Cosmos 2082 4.1 23:20:09 10° N 23:25:34 41° ENE 23:30:56 10° SE
CZ-4B R/B 2.9 23:24:34 10° N 23:27:31 36° WNW 23:30:23 10° SW
SAR-Lupe-4 3.7 23:24:38 10° N 23:28:14 74° WNW 23:31:47 10° SSW
Aureole 3 Rocket 3.5 23:25:41 10° SSW 23:29:38 71° W 23:35:08 10° N
Cosmos 1745 Rocket 4.1 23:25:10 10° N 23:31:21 54° E 23:37:32 10° SSE
NOSS 3-3 (A) 3.8 23:25:52 10° SSW 23:31:35 77° ESE 23:37:59 10° NE
NOSS 3-3 (C) 3.8 23:25:59 10° SSW 23:31:41 76° ESE 23:38:05 10° NE
Cosmos 1400 Rocket 3.8 23:29:14 10° SSW 23:33:13 50° WNW 23:37:12 10° N
USA 307 3.6 23:29:18 10° NW 23:33:19 37° NNE 23:35:04 25° ENE
Cosmos 1825 2.9 23:33:17 10° NNE 23:36:39 30° ENE 23:37:06 29° E
ERS-2 4.2 23:33:42 10° N 23:36:54 29° WNW 23:40:05 10° SW
IRS-1C Rocket 4.0 23:32:43 10° SSE 23:37:59 87° ENE 23:43:18 10° NNW
COSMO-SKYMED 1 2.6 23:33:40 10° N 23:38:02 82° WNW 23:42:22 10° SSW
USA 308 3.5 23:34:16 10° NW 23:38:18 39° NNE 23:39:51 29° ENE
Cosmos 2369 3.7 23:32:44 10° S 23:38:21 63° ESE 23:44:00 10° NNE
GPS 2-04 Rocket1 4.0 23:36:02 10° SW 23:39:35 30° SSE 23:41:13 22° SE
Helios 1A Rocket 2.8 23:37:40 10° SSE 23:41:45 67° ENE 23:45:50 10° N
OAO 2 Rocket 4.0 23:39:43 10° WSW 23:44:26 42° S 23:46:58 24° ESE
CSL-04 Rocket 4.2 23:40:04 10° SE 23:45:08 38° ENE 23:50:11 10° N
CZ-4 R/B 4.4 23:41:47 10° SSE 23:45:56 87° E 23:50:08 10° NNW
CZ-2D R/B 3.1 23:42:20 10° SSE 23:46:07 84° ENE 23:49:57 10° N
ATLAS 2AS CENTAUR R/B 3.8 23:40:04 10° NNW 23:46:17 27° NE 23:48:38 23° ENE
Cosmos 1340 3.9 23:43:58 10° NNW 23:47:35 44° W 23:51:11 10° SSW
YAOGAN 1 2.6 23:43:34 10° SSE 23:47:46 53° ENE 23:52:00 10° N
Cosmos 2227 Rocket 2.4 23:43:31 10° NNW 23:49:09 74° WSW 23:54:48 10° SSE
Cosmos 2263 Rocket 3.6 23:46:29 10° N 23:50:17 20° NE 23:50:17 20° NE
CZ-4 R/B 1.1 23:47:58 10° SSE 23:51:50 70° ENE 23:55:40 10° N
Cosmos 1812 Rocket 3.4 23:49:51 10° S 23:54:12 65° E 23:58:33 10° NNE
